Weather History for Olathe, KS

Change the Weather History Date:

Friday, April 5, 2013

  Actual Average Record
Temperature  
Mean Temperature 53 °F 52 °F  
Max Temperature 68 °F 62 °F 82 °F (1954)
Min Temperature 37 °F 41 °F 24 °F (1950)
Degree Days  
Heating Degree Days 12 14  
Month to date heating degree days 99 71  
Since 1 July heating degree days 4577 4588  
Cooling Degree Days 0 0  
Month to date cooling degree days 0 0  
Year to date cooling degree days 1 1  
Growing Degree Days 2 (Base 50)    
Moisture  
Dew Point 37 °F    
Average Humidity 59    
Maximum Humidity 82    
Minimum Humidity 35    
Precipitation  
Precipitation 0.00 in 0.09 in 1.60 in (1964)
Month to date precipitation 0.00 0.42  
Year to date precipitation 5.20 5.74  
Sea Level Pressure  
Sea Level Pressure 30.05 in    
Wind  
Wind Speed 8 mph (SSW)    
Max Wind Speed 22 mph    
Max Gust Speed 29 mph    
Visibility 10 miles    
Events      
T = Trace of Precipitation, MM = Missing Value Source: NWS Daily Summary

Daily Weather History Graph

Daily Weather History Graph

Search for Another Location

Airport:

Trip Planner

Search our weather history database for the weather conditions in past years. The results will help you decide how hot, cold, wet, or windy it might be!

Date:

Astronomy

Apr. 05, 2013 Rise Set
Actual Time 6:57 AM CDT 7:46 PM CDT
Civil Twilight 6:30 AM CDT 8:13 PM CDT
Nautical Twilight 5:58 AM CDT 8:45 PM CDT
Astronomical Twilight 5:25 AM CDT 9:18 PM CDT
Moon 4:02 AM CDT (4/5) 3:14 PM CDT (4/5)
Length of Visible Light 13h 43m
Length of Day
12h 49m
Waning Crescent, 23% of the Moon is Illuminated
Apr 5
Waning Crescent
Apr 10
New
Apr 18
First Quarter
Apr 25
Full
May 2
Last Quarter

Hourly Weather History & Observations

Time (CDT) Temp. Windchill Dew Point Humidity Pressure Visibility Wind Dir Wind Speed Gust Speed Precip Events Conditions
12:53 AM 44.1 °F 42.5 °F 32.0 °F 63% 30.11 in 10.0 mi WSW 3.5 mph - N/A   Clear
1:53 AM 45.0 °F 43.5 °F 30.9 °F 58% 30.11 in 9.0 mi WSW 3.5 mph - N/A   Clear
2:53 AM 46.9 °F - 30.0 °F 52% 30.10 in 10.0 mi WSW 3.5 mph - N/A   Clear
3:53 AM 44.1 °F 42.5 °F 30.9 °F 60% 30.11 in 10.0 mi West 3.5 mph - N/A   Clear
4:53 AM 42.1 °F 40.2 °F 32.0 °F 67% 30.12 in 10.0 mi West 3.5 mph - N/A   Clear
5:53 AM 39.0 °F - 32.0 °F 76% 30.12 in 9.0 mi Calm Calm - N/A   Clear
6:53 AM 37.9 °F - 32.0 °F 79% 30.13 in 8.0 mi Calm Calm - N/A   Clear
7:53 AM 43.0 °F - 34.0 °F 71% 30.15 in 8.0 mi Calm Calm - N/A   Clear
8:53 AM 48.0 °F - 35.1 °F 61% 30.18 in 9.0 mi ENE 4.6 mph - N/A   Clear
9:53 AM 50.0 °F - 36.0 °F 59% 30.17 in 9.0 mi ESE 6.9 mph - N/A   Clear
10:53 AM 55.0 °F - 37.0 °F 51% 30.16 in 6.0 mi SSW 4.6 mph - N/A   Haze
11:53 AM 60.1 °F - 39.9 °F 47% 30.14 in 9.0 mi South 5.8 mph - N/A   Clear
12:53 PM 63.0 °F - 39.9 °F 43% 30.12 in 10.0 mi Variable 6.9 mph - N/A   Clear
1:53 PM 64.0 °F - 39.9 °F 41% 30.08 in 10.0 mi South 13.8 mph 19.6 mph N/A   Clear
2:53 PM 66.0 °F - 41.0 °F 40% 30.04 in 10.0 mi SSW 11.5 mph 20.7 mph N/A   Clear
3:53 PM 66.9 °F - 39.0 °F 36% 30.00 in 10.0 mi SSW 12.7 mph 24.2 mph N/A   Clear
4:53 PM 68.0 °F - 39.9 °F 36% 29.97 in 10.0 mi South 13.8 mph 23.0 mph N/A   Clear
5:53 PM 66.0 °F - 39.9 °F 38% 29.95 in 10.0 mi South 18.4 mph 23.0 mph N/A   Clear
6:53 PM 64.0 °F - 39.9 °F 41% 29.94 in 10.0 mi South 12.7 mph 23.0 mph N/A   Clear
7:53 PM 60.1 °F - 42.1 °F 51% 29.92 in 10.0 mi South 11.5 mph - N/A   Clear
8:53 PM 59.0 °F - 39.9 °F 49% 29.91 in 10.0 mi South 12.7 mph - N/A   Clear
9:53 PM 57.9 °F - 39.9 °F 51% 29.91 in 10.0 mi South 12.7 mph - N/A   Clear
10:53 PM 57.0 °F - 39.9 °F 53% 29.89 in 10.0 mi South 12.7 mph 17.3 mph N/A   Clear
11:53 PM 55.9 °F - 39.9 °F 55% 29.86 in 10.0 mi South 12.7 mph - N/A   Clear